Time,TemperatureF,DewpointF,PressureIn,WindDirection,WindDirectionDegrees,WindSpeedMPH,WindSpeedGustMPH,Humidity,HourlyPrecipIn,Conditions,Clouds,dailyrainin,SoftwareType,DateUTC
2013-05-07 00:02:00,54.0,28.0,29.89,North,0,0.0,-999.0,37,-99.99,,,-99.99,,2013-05-07 06:02:00,
2013-05-07 00:11:00,54.0,28.0,29.89,North,0,0.0,-999.0,37,-99.99,,,-99.99,,2013-05-07 06:11:00,
2013-05-07 00:21:00,54.0,28.0,29.89,North,0,0.0,-999.0,37,-99.99,,,-99.99,,2013-05-07 06:21:00,
2013-05-07 00:32:00,55.0,28.0,29.89,North,360,5.0,-999.0,35,-99.99,,,-99.99,,2013-05-07 06:32:00,
2013-05-07 00:41:00,55.0,28.0,29.89,North,360,5.0,-999.0,35,-99.99,,,-99.99,,2013-05-07 06:41:00,
2013-05-07 00:52:00,55.0,28.0,29.89,North,-999,-999.0,-999.0,35,-99.99,,,-99.99,,2013-05-07 06:52:00,
2013-05-07 01:01:00,55.0,28.0,29.89,North,-999,-999.0,-999.0,35,-99.99,,,-99.99,,2013-05-07 07:01:00,
2013-05-07 01:11:00,54.0,27.0,29.89,NNW,340,5.0,-999.0,34,-99.99,,,-99.99,,2013-05-07 07:11:00,
2013-05-07 01:22:00,54.0,27.0,29.89,NNW,340,5.0,-999.0,34,-99.99,,,-99.99,,2013-05-07 07:22:00,
2013-05-07 01:31:00,52.0,27.0,29.89,North,-999,-999.0,-999.0,37,-99.99,,,-99.99,,2013-05-07 07:31:00,
2013-05-07 01:42:00,52.0,27.0,29.89,North,-999,-999.0,-999.0,37,-99.99,,,-99.99,,2013-05-07 07:42:00,
2013-05-07 01:52:00,52.0,27.0,29.88,North,0,0.0,-999.0,37,-99.99,,,-99.99,,2013-05-07 07:52:00,
2013-05-07 02:02:00,52.0,27.0,29.88,North,0,0.0,-999.0,37,-99.99,,,-99.99,,2013-05-07 08:02:00,
2013-05-07 02:11:00,52.0,27.0,29.88,North,0,0.0,-999.0,37,-99.99,,,-99.99,,2013-05-07 08:11:00,
2013-05-07 02:21:00,52.0,27.0,29.88,North,0,0.0,-999.0,37,-99.99,,,-99.99,,2013-05-07 08:21:00,
2013-05-07 02:31:00,46.0,28.0,29.88,North,0,0.0,-999.0,49,-99.99,,,-99.99,,2013-05-07 08:31:00,
2013-05-07 02:52:00,48.0,28.0,29.88,North,0,0.0,-999.0,46,-99.99,,,-99.99,,2013-05-07 08:52:00,
2013-05-07 03:01:00,48.0,28.0,29.88,North,0,0.0,-999.0,46,-99.99,,,-99.99,,2013-05-07 09:01:00,
2013-05-07 03:11:00,48.0,28.0,29.88,North,0,0.0,-999.0,46,-99.99,,,-99.99,,2013-05-07 09:11:00,
2013-05-07 03:22:00,48.0,28.0,29.88,North,0,0.0,-999.0,46,-99.99,,,-99.99,,2013-05-07 09:22:00,
2013-05-07 03:33:00,46.0,28.0,29.88,SSW,210,5.0,-999.0,49,-99.99,,,-99.99,,2013-05-07 09:33:00,
2013-05-07 03:42:00,46.0,28.0,29.88,SSW,210,5.0,-999.0,49,-99.99,,,-99.99,,2013-05-07 09:42:00,
2013-05-07 03:52:00,43.0,28.0,29.87,North,0,0.0,-999.0,56,-99.99,,,-99.99,,2013-05-07 09:52:00,
2013-05-07 04:02:00,43.0,28.0,29.87,North,0,0.0,-999.0,56,-99.99,,,-99.99,,2013-05-07 10:02:00,
2013-05-07 04:12:00,43.0,28.0,29.87,North,0,0.0,-999.0,56,-99.99,,,-99.99,,2013-05-07 10:12:00,
2013-05-07 04:22:00,43.0,28.0,29.87,North,0,0.0,-999.0,56,-99.99,,,-99.99,,2013-05-07 10:22:00,
2013-05-07 04:32:00,43.0,28.0,29.87,WSW,250,5.0,-999.0,56,-99.99,,,-99.99,,2013-05-07 10:32:00,
2013-05-07 04:42:00,43.0,28.0,29.87,WSW,250,5.0,-999.0,56,-99.99,,,-99.99,,2013-05-07 10:42:00,
2013-05-07 04:52:00,41.0,27.0,29.87,West,260,6.0,-999.0,56,-99.99,,,-99.99,,2013-05-07 10:52:00,
2013-05-07 05:02:00,41.0,27.0,29.87,West,260,6.0,-999.0,56,-99.99,,,-99.99,,2013-05-07 11:02:00,
2013-05-07 05:11:00,41.0,27.0,29.87,West,260,6.0,-999.0,56,-99.99,,,-99.99,,2013-05-07 11:11:00,
2013-05-07 05:21:00,41.0,27.0,29.87,West,260,6.0,-999.0,56,-99.99,,,-99.99,,2013-05-07 11:21:00,
2013-05-07 05:32:00,43.0,28.0,29.87,SW,230,5.0,-999.0,56,-99.99,,,-99.99,,2013-05-07 11:32:00,
2013-05-07 05:42:00,43.0,28.0,29.87,SW,230,5.0,-999.0,56,-99.99,,,-99.99,,2013-05-07 11:42:00,
2013-05-07 05:52:00,43.0,28.0,29.87,North,0,0.0,-999.0,56,-99.99,,,-99.99,,2013-05-07 11:52:00,
2013-05-07 06:01:00,43.0,28.0,29.87,North,0,0.0,-999.0,56,-99.99,,,-99.99,,2013-05-07 12:01:00,
2013-05-07 06:11:00,39.0,27.0,29.87,North,0,0.0,-999.0,60,-99.99,,,-99.99,,2013-05-07 12:11:00,
2013-05-07 06:21:00,39.0,27.0,29.87,North,0,0.0,-999.0,60,-99.99,,,-99.99,,2013-05-07 12:21:00,
2013-05-07 06:32:00,39.0,28.0,29.88,SW,230,6.0,-999.0,64,-99.99,,,-99.99,,2013-05-07 12:32:00,
2013-05-07 06:52:00,41.0,28.0,29.88,SW,230,5.0,-999.0,60,-99.99,,,-99.99,,2013-05-07 12:52:00,
2013-05-07 07:01:00,41.0,28.0,29.88,SW,230,5.0,-999.0,60,-99.99,,,-99.99,,2013-05-07 13:01:00,
2013-05-07 07:11:00,43.0,30.0,29.88,SW,230,6.0,-999.0,60,-99.99,,,-99.99,,2013-05-07 13:11:00,
2013-05-07 07:21:00,43.0,30.0,29.88,SW,230,6.0,-999.0,60,-99.99,,,-99.99,,2013-05-07 13:21:00,
2013-05-07 07:32:00,46.0,32.0,29.88,SW,230,8.0,-999.0,57,-99.99,,,-99.99,,2013-05-07 13:32:00,
2013-05-07 07:42:00,46.0,32.0,29.88,SW,230,8.0,-999.0,57,-99.99,,,-99.99,,2013-05-07 13:42:00,
2013-05-07 07:52:00,48.0,32.0,29.89,SSW,210,9.0,-999.0,53,-99.99,,,-99.99,,2013-05-07 13:52:00,
2013-05-07 08:01:00,48.0,32.0,29.89,SSW,210,9.0,-999.0,53,-99.99,,,-99.99,,2013-05-07 14:01:00,
2013-05-07 08:11:00,48.0,32.0,29.89,SSW,210,9.0,-999.0,53,-99.99,,,-99.99,,2013-05-07 14:11:00,
2013-05-07 08:21:00,48.0,32.0,29.89,SSW,210,9.0,-999.0,53,-99.99,,,-99.99,,2013-05-07 14:21:00,
2013-05-07 08:31:00,52.0,34.0,29.88,WSW,240,7.0,-999.0,50,-99.99,,,-99.99,,2013-05-07 14:31:00,
2013-05-07 08:42:00,52.0,34.0,29.88,WSW,240,7.0,-999.0,50,-99.99,,,-99.99,,2013-05-07 14:42:00,
2013-05-07 08:52:00,55.0,36.0,29.89,SSW,210,8.0,-999.0,47,-99.99,,,-99.99,,2013-05-07 14:52:00,
2013-05-07 09:01:00,55.0,36.0,29.89,SSW,210,8.0,-999.0,47,-99.99,,,-99.99,,2013-05-07 15:01:00,
2013-05-07 09:11:00,55.0,36.0,29.89,SSW,210,8.0,-999.0,47,-99.99,,,-99.99,,2013-05-07 15:11:00,
2013-05-07 09:21:00,55.0,36.0,29.89,SSW,210,8.0,-999.0,47,-99.99,,,-99.99,,2013-05-07 15:21:00,
2013-05-07 09:33:00,59.0,34.0,29.89,SSW,210,6.0,-999.0,38,-99.99,,,-99.99,,2013-05-07 15:33:00,
2013-05-07 09:42:00,59.0,34.0,29.89,SSW,210,6.0,-999.0,38,-99.99,,,-99.99,,2013-05-07 15:42:00,
2013-05-07 09:53:00,63.0,34.0,29.89,SSW,210,7.0,-999.0,33,-99.99,,,-99.99,,2013-05-07 15:53:00,
2013-05-07 10:03:00,63.0,34.0,29.89,SSW,210,7.0,-999.0,33,-99.99,,,-99.99,,2013-05-07 16:03:00,
2013-05-07 10:12:00,64.0,32.0,29.88,North,0,0.0,-999.0,29,-99.99,,,-99.99,,2013-05-07 16:12:00,
2013-05-07 10:22:00,64.0,32.0,29.88,North,0,0.0,-999.0,29,-99.99,,,-99.99,,2013-05-07 16:22:00,
2013-05-07 10:32:00,66.0,30.0,29.88,SSW,200,6.0,-999.0,25,-99.99,,,-99.99,,2013-05-07 16:32:00,
2013-05-07 10:41:00,66.0,30.0,29.88,SSW,200,6.0,-999.0,25,-99.99,,,-99.99,,2013-05-07 16:41:00,
2013-05-07 10:51:00,66.0,32.0,29.88,South,190,7.0,-999.0,27,-99.99,,,-99.99,,2013-05-07 16:51:00,
2013-05-07 11:01:00,66.0,32.0,29.88,South,190,7.0,-999.0,27,-99.99,,,-99.99,,2013-05-07 17:01:00,
2013-05-07 11:12:00,66.0,32.0,29.88,South,190,7.0,-999.0,27,-99.99,,,-99.99,,2013-05-07 17:12:00,
2013-05-07 11:21:00,66.0,32.0,29.88,South,190,7.0,-999.0,27,-99.99,,,-99.99,,2013-05-07 17:21:00,
2013-05-07 11:31:00,70.0,34.0,29.88,SSW,210,7.0,-999.0,26,-99.99,,,-99.99,,2013-05-07 17:31:00,
2013-05-07 11:41:00,70.0,34.0,29.88,SSW,210,7.0,-999.0,26,-99.99,,,-99.99,,2013-05-07 17:41:00,
2013-05-07 11:52:00,72.0,34.0,29.88,North,0,0.0,-999.0,24,-99.99,,,-99.99,,2013-05-07 17:52:00,
2013-05-07 12:01:00,72.0,34.0,29.88,North,0,0.0,-999.0,24,-99.99,,,-99.99,,2013-05-07 18:01:00,
2013-05-07 12:11:00,72.0,34.0,29.88,North,0,0.0,-999.0,24,-99.99,,,-99.99,,2013-05-07 18:11:00,
2013-05-07 12:21:00,72.0,34.0,29.88,North,0,0.0,-999.0,24,-99.99,,,-99.99,,2013-05-07 18:21:00,
2013-05-07 12:31:00,73.0,30.0,29.87,ESE,120,8.0,-999.0,20,-99.99,,,-99.99,,2013-05-07 18:31:00,
2013-05-07 12:41:00,73.0,30.0,29.87,ESE,120,8.0,-999.0,20,-99.99,,,-99.99,,2013-05-07 18:41:00,
2013-05-07 12:51:00,73.0,30.0,29.87,ESE,120,6.0,-999.0,20,-99.99,,,-99.99,,2013-05-07 18:51:00,
2013-05-07 13:02:00,73.0,30.0,29.87,ESE,120,6.0,-999.0,20,-99.99,,,-99.99,,2013-05-07 19:02:00,
2013-05-07 13:11:00,75.0,32.0,29.86,East,100,10.0,-999.0,20,-99.99,,,-99.99,,2013-05-07 19:11:00,
2013-05-07 13:21:00,75.0,32.0,29.86,East,100,10.0,-999.0,20,-99.99,,,-99.99,,2013-05-07 19:21:00,
2013-05-07 13:31:00,75.0,34.0,29.86,East,80,7.0,-999.0,22,-99.99,,,-99.99,,2013-05-07 19:31:00,
2013-05-07 13:41:00,75.0,34.0,29.86,East,80,7.0,-999.0,22,-99.99,,,-99.99,,2013-05-07 19:41:00,
2013-05-07 13:51:00,75.0,32.0,29.86,North,0,0.0,-999.0,20,-99.99,,,-99.99,,2013-05-07 19:51:00,
2013-05-07 14:01:00,75.0,32.0,29.86,North,0,0.0,-999.0,20,-99.99,,,-99.99,,2013-05-07 20:01:00,
2013-05-07 14:11:00,75.0,32.0,29.86,North,0,0.0,-999.0,20,-99.99,,,-99.99,,2013-05-07 20:11:00,
2013-05-07 14:21:00,75.0,32.0,29.86,North,0,0.0,-999.0,20,-99.99,,,-99.99,,2013-05-07 20:21:00,
2013-05-07 14:32:00,79.0,32.0,29.86,North,0,0.0,-999.0,18,-99.99,,,-99.99,,2013-05-07 20:32:00,
2013-05-07 14:42:00,79.0,32.0,29.86,North,0,0.0,-999.0,18,-99.99,,,-99.99,,2013-05-07 20:42:00,
2013-05-07 14:52:00,77.0,28.0,29.86,North,350,5.0,-999.0,16,-99.99,,,-99.99,,2013-05-07 20:52:00,
2013-05-07 15:01:00,77.0,28.0,29.86,North,350,5.0,-999.0,16,-99.99,,,-99.99,,2013-05-07 21:01:00,
2013-05-07 15:11:00,77.0,28.0,29.86,North,350,5.0,-999.0,16,-99.99,,,-99.99,,2013-05-07 21:11:00,
2013-05-07 15:21:00,77.0,28.0,29.86,North,350,5.0,-999.0,16,-99.99,,,-99.99,,2013-05-07 21:21:00,
2013-05-07 15:32:00,79.0,28.0,29.85,East,100,6.0,-999.0,15,-99.99,,,-99.99,,2013-05-07 21:32:00,
2013-05-07 15:43:00,79.0,28.0,29.85,East,100,6.0,-999.0,15,-99.99,,,-99.99,,2013-05-07 21:43:00,
2013-05-07 15:53:00,79.0,28.0,29.85,East,100,6.0,-999.0,15,-99.99,,,-99.99,,2013-05-07 21:53:00,
2013-05-07 16:02:00,79.0,28.0,29.85,East,100,6.0,-999.0,15,-99.99,,,-99.99,,2013-05-07 22:02:00,
2013-05-07 16:13:00,79.0,28.0,29.85,East,100,6.0,-999.0,15,-99.99,,,-99.99,,2013-05-07 22:13:00,
2013-05-07 16:33:00,77.0,28.0,29.85,North,-99,7.0,-999.0,16,-99.99,,,-99.99,,2013-05-07 22:33:00,
2013-05-07 16:42:00,77.0,28.0,29.85,North,-99,7.0,-999.0,16,-99.99,,,-99.99,,2013-05-07 22:42:00,
2013-05-07 16:52:00,79.0,30.0,29.85,NNE,20,12.0,25.0,16,-99.99,,,-99.99,,2013-05-07 22:52:00,
2013-05-07 17:02:00,79.0,30.0,29.85,NNE,20,12.0,25.0,16,-99.99,,,-99.99,,2013-05-07 23:02:00,
2013-05-07 17:11:00,79.0,30.0,29.85,NNE,20,12.0,25.0,16,-99.99,,,-99.99,,2013-05-07 23:11:00,
2013-05-07 17:21:00,79.0,30.0,29.85,NNE,20,12.0,25.0,16,-99.99,,,-99.99,,2013-05-07 23:21:00,
2013-05-07 17:32:00,75.0,30.0,29.85,NNE,30,9.0,-999.0,19,-99.99,,,-99.99,,2013-05-07 23:32:00,
2013-05-07 17:42:00,75.0,30.0,29.85,NNE,30,9.0,-999.0,19,-99.99,,,-99.99,,2013-05-07 23:42:00,
2013-05-07 17:52:00,77.0,28.0,29.85,NE,50,7.0,-999.0,16,-99.99,,,-99.99,,2013-05-07 23:52:00,
2013-05-07 18:01:00,77.0,28.0,29.85,NE,50,7.0,-999.0,16,-99.99,,,-99.99,,2013-05-08 00:01:00,
2013-05-07 18:11:00,77.0,28.0,29.85,NE,50,7.0,-999.0,16,-99.99,,,-99.99,,2013-05-08 00:11:00,
2013-05-07 18:21:00,77.0,28.0,29.85,NE,50,7.0,-999.0,16,-99.99,,,-99.99,,2013-05-08 00:21:00,
2013-05-07 18:32:00,77.0,30.0,29.86,NNE,20,13.0,25.0,17,-99.99,,,-99.99,,2013-05-08 00:32:00,
2013-05-07 18:42:00,77.0,30.0,29.86,NNE,20,13.0,25.0,17,-99.99,,,-99.99,,2013-05-08 00:42:00,
2013-05-07 18:52:00,79.0,28.0,29.86,North,10,12.0,20.0,15,-99.99,,,-99.99,,2013-05-08 00:52:00,
2013-05-07 19:02:00,79.0,28.0,29.86,North,10,12.0,20.0,15,-99.99,,,-99.99,,2013-05-08 01:02:00,
2013-05-07 19:11:00,77.0,28.0,29.87,NNE,20,13.0,18.0,16,-99.99,,,-99.99,,2013-05-08 01:11:00,
2013-05-07 19:21:00,77.0,28.0,29.87,NNE,20,13.0,18.0,16,-99.99,,,-99.99,,2013-05-08 01:21:00,
2013-05-07 19:31:00,75.0,28.0,29.87,North,350,14.0,22.0,17,-99.99,,,-99.99,,2013-05-08 01:31:00,
2013-05-07 19:42:00,75.0,28.0,29.87,North,350,14.0,22.0,17,-99.99,,,-99.99,,2013-05-08 01:42:00,
2013-05-07 19:52:00,73.0,28.0,29.88,North,360,14.0,20.0,18,-99.99,,,-99.99,,2013-05-08 01:52:00,
2013-05-07 20:01:00,73.0,28.0,29.88,North,360,14.0,20.0,18,-99.99,,,-99.99,,2013-05-08 02:01:00,
2013-05-07 20:11:00,73.0,28.0,29.88,North,360,14.0,20.0,18,-99.99,,,-99.99,,2013-05-08 02:11:00,
2013-05-07 20:22:00,73.0,28.0,29.88,North,360,14.0,20.0,18,-99.99,,,-99.99,,2013-05-08 02:22:00,
2013-05-07 20:31:00,72.0,28.0,29.90,NNW,340,8.0,-999.0,19,-99.99,,,-99.99,,2013-05-08 02:31:00,
2013-05-07 20:42:00,72.0,28.0,29.90,NNW,340,8.0,-999.0,19,-99.99,,,-99.99,,2013-05-08 02:42:00,
2013-05-07 20:52:00,68.0,27.0,29.91,NNW,340,8.0,-999.0,20,-99.99,,,-99.99,,2013-05-08 02:52:00,
2013-05-07 21:01:00,68.0,27.0,29.91,NNW,340,8.0,-999.0,20,-99.99,,,-99.99,,2013-05-08 03:01:00,
2013-05-07 21:11:00,68.0,27.0,29.91,NNW,340,8.0,-999.0,20,-99.99,,,-99.99,,2013-05-08 03:11:00,
2013-05-07 21:21:00,68.0,27.0,29.91,NNW,340,8.0,-999.0,20,-99.99,,,-99.99,,2013-05-08 03:21:00,
2013-05-07 21:32:00,64.0,27.0,29.92,NNW,340,6.0,-999.0,23,-99.99,,,-99.99,,2013-05-08 03:32:00,
2013-05-07 21:43:00,64.0,27.0,29.92,NNW,340,6.0,-999.0,23,-99.99,,,-99.99,,2013-05-08 03:43:00,
2013-05-07 21:52:00,64.0,27.0,29.93,North,350,5.0,-999.0,23,-99.99,,,-99.99,,2013-05-08 03:52:00,
2013-05-07 22:02:00,64.0,27.0,29.93,North,350,5.0,-999.0,23,-99.99,,,-99.99,,2013-05-08 04:02:00,
2013-05-07 22:12:00,63.0,27.0,29.94,NNW,340,6.0,-999.0,25,-99.99,,,-99.99,,2013-05-08 04:12:00,
2013-05-07 22:22:00,63.0,27.0,29.94,NNW,340,6.0,-999.0,25,-99.99,,,-99.99,,2013-05-08 04:22:00,
2013-05-07 22:32:00,63.0,27.0,29.94,NNW,340,5.0,-999.0,25,-99.99,,,-99.99,,2013-05-08 04:32:00,
2013-05-07 22:42:00,63.0,27.0,29.94,NNW,340,5.0,-999.0,25,-99.99,,,-99.99,,2013-05-08 04:42:00,
2013-05-07 22:52:00,63.0,27.0,29.94,NNW,340,5.0,-999.0,25,-99.99,,,-99.99,,2013-05-08 04:52:00,
2013-05-07 23:02:00,63.0,27.0,29.94,NNW,340,5.0,-999.0,25,-99.99,,,-99.99,,2013-05-08 05:02:00,
2013-05-07 23:12:00,63.0,27.0,29.94,NNW,340,5.0,-999.0,25,-99.99,,,-99.99,,2013-05-08 05:12:00,
2013-05-07 23:22:00,63.0,27.0,29.94,NNW,340,5.0,-999.0,25,-99.99,,,-99.99,,2013-05-08 05:22:00,
2013-05-07 23:32:00,57.0,25.0,29.95,North,0,0.0,-999.0,28,-99.99,,,-99.99,,2013-05-08 05:32:00,
2013-05-07 23:52:00,57.0,27.0,29.95,North,360,5.0,-999.0,30,-99.99,,,-99.99,,2013-05-08 05:52:00,